Information on these data can be found in provided Readme document
Contact Info: Zachary Fasnacht (zachary.fasnacht@ssaihq.com); Nickolay Krotkov (nickolay.a.krotkov@nasa.gov); Lok Lamsal (lok.lamsal@nasa.gov)

FillValue: -999.
ScaleFactor: 1e15
Units: molecules/cm^2

Date(yyyy-mm-dd),City,Country,LonCenter,LatCenter,BoundingCoordinates,Median,Q1,Q3,Mean,Baseline_Median,Baseline_Q1,Baseline_Q3,Baseline_Mean,NumGoodSamples,NumTotalSamples
2015-01-01,Birmingham,England,-1.9167,52.4167,[-2.4167 51.9167 -1.4167 52.9167],3.816,2.458,5.158,3.965,3.912,2.191,5.397,3.964,158.0,642.0
2015-01-02,Birmingham,England,-1.9167,52.4167,[-2.4167 51.9167 -1.4167 52.9167],4.072,2.474,5.398,4.093,3.948,2.111,5.41,3.939,133.0,651.0
2015-01-03,Birmingham,England,-1.9167,52.4167,[-2.4167 51.9167 -1.4167 52.9167],3.771,2.208,4.78,3.777,3.818,2.236,5.069,3.937,165.0,659.0
2015-01-04,Birmingham,England,-1.9167,52.4167,[-2.4167 51.9167 -1.4167 52.9167],3.771,2.208,4.78,3.777,3.781,1.984,5.133,3.843,165.0,651.0
2015-01-05,Birmingham,England,-1.9167,52.4167,[-2.4167 51.9167 -1.4167 52.9167],3.771,2.208,4.78,3.777,3.338,1.841,4.88,3.466,165.0,660.0
2015-01-06,Birmingham,England,-1.9167,52.4167,[-2.4167 51.9167 -1.4167 52.9167],3.771,2.208,4.927,3.779,3.134,1.737,4.636,3.296,145.0,651.0
2015-01-07,Birmingham,England,-1.9167,52.4167,[-2.4167 51.9167 -1.4167 52.9167],3.119,2.025,4.742,3.4,2.74,1.566,4.377,3.035,118.0,657.0
2015-01-08,Birmingham,England,-1.9167,52.4167,[-2.4167 51.9167 -1.4167 52.9167],3.582,2.191,4.78,3.611,3.17,1.696,4.832,3.321,130.0,652.0
2015-01-09,Birmingham,England,-1.9167,52.4167,[-2.4167 51.9167 -1.4167 52.9167],3.584,2.191,4.78,3.586,3.186,1.733,4.842,3.318,139.0,663.0
2015-01-10,Birmingham,England,-1.9167,52.4167,[-2.4167 51.9167 -1.4167 52.9167],3.582,2.129,4.78,3.564,3.084,1.771,4.65,3.299,128.0,615.0
2015-01-11,Birmingham,England,-1.9167,52.4167,[-2.4167 51.9167 -1.4167 52.9167],3.609,2.353,4.763,3.625,3.117,1.872,4.733,3.352,138.0,622.0
2015-01-12,Birmingham,England,-1.9167,52.4167,[-2.4167 51.9167 -1.4167 52.9167],3.773,2.474,4.878,3.755,3.232,1.932,4.836,3.419,159.0,629.0
2015-01-13,Birmingham,England,-1.9167,52.4167,[-2.4167 51.9167 -1.4167 52.9167],3.773,2.43,4.78,3.673,4.33,2.149,6.218,4.324,155.0,617.0
2015-01-14,Birmingham,England,-1.9167,52.4167,[-2.4167 51.9167 -1.4167 52.9167],4.118,2.713,4.927,3.84,4.405,2.248,6.214,4.365,129.0,622.0
2015-01-15,Birmingham,England,-1.9167,52.4167,[-2.4167 51.9167 -1.4167 52.9167],4.129,2.713,5.247,4.012,4.331,2.169,6.529,4.456,141.0,617.0
2015-01-16,Birmingham,England,-1.9167,52.4167,[-2.4167 51.9167 -1.4167 52.9167],4.151,2.811,5.331,4.126,4.342,2.114,6.958,4.607,112.0,628.0
2015-01-17,Birmingham,England,-1.9167,52.4167,[-2.4167 51.9167 -1.4167 52.9167],3.922,2.712,5.011,3.931,4.297,2.189,6.859,4.602,131.0,619.0
2015-01-18,Birmingham,England,-1.9167,52.4167,[-2.4167 51.9167 -1.4167 52.9167],4.315,2.994,5.565,4.38,4.671,2.32,7.268,4.916,99.0,623.0
2015-01-19,Birmingham,England,-1.9167,52.4167,[-2.4167 51.9167 -1.4167 52.9167],4.315,2.994,5.565,4.38,5.042,2.529,7.466,5.137,99.0,629.0
2015-01-20,Birmingham,England,-1.9167,52.4167,[-2.4167 51.9167 -1.4167 52.9167],4.315,2.994,5.565,4.38,5.179,2.605,7.635,5.305,99.0,623.0
2015-01-21,Birmingham,England,-1.9167,52.4167,[-2.4167 51.9167 -1.4167 52.9167],4.118,2.745,5.517,4.211,5.135,3.04,7.546,5.386,105.0,631.0
2015-01-22,Birmingham,England,-1.9167,52.4167,[-2.4167 51.9167 -1.4167 52.9167],4.118,2.745,5.517,4.223,5.166,3.05,7.603,5.43,96.0,617.0
2015-01-23,Birmingham,England,-1.9167,52.4167,[-2.4167 51.9167 -1.4167 52.9167],3.9,2.712,5.011,4.049,4.967,3.069,7.476,5.334,81.0,621.0
2015-01-24,Birmingham,England,-1.9167,52.4167,[-2.4167 51.9167 -1.4167 52.9167],4.151,2.534,5.517,4.255,5.037,3.04,7.693,5.417,79.0,616.0
2015-01-25,Birmingham,England,-1.9167,52.4167,[-2.4167 51.9167 -1.4167 52.9167],4.151,2.534,5.517,4.255,5.614,3.299,8.127,5.777,79.0,665.0
2015-01-26,Birmingham,England,-1.9167,52.4167,[-2.4167 51.9167 -1.4167 52.9167],3.651,1.65,5.895,4.339,5.55,3.091,8.023,5.83,69.0,652.0
2015-01-27,Birmingham,England,-1.9167,52.4167,[-2.4167 51.9167 -1.4167 52.9167],2.422,0.853,6.336,3.992,5.092,2.984,7.66,5.593,50.0,658.0
2015-01-28,Birmingham,England,-1.9167,52.4167,[-2.4167 51.9167 -1.4167 52.9167],5.4,2.097,8.005,5.223,4.316,2.415,6.1,4.484,74.0,664.0
2015-01-29,Birmingham,England,-1.9167,52.4167,[-2.4167 51.9167 -1.4167 52.9167],5.4,2.097,8.005,5.223,4.324,2.426,6.101,4.501,74.0,651.0
2015-01-30,Birmingham,England,-1.9167,52.4167,[-2.4167 51.9167 -1.4167 52.9167],5.656,2.375,8.005,5.262,4.45,2.66,6.248,4.635,69.0,653.0
2015-01-31,Birmingham,England,-1.9167,52.4167,[-2.4167 51.9167 -1.4167 52.9167],5.502,2.134,7.884,5.072,4.381,2.422,5.947,4.404,65.0,648.0
2015-02-01,Birmingham,England,-1.9167,52.4167,[-2.4167 51.9167 -1.4167 52.9167],6.078,3.575,9.176,6.235,4.441,2.669,6.276,4.649,62.0,658.0
2015-02-02,Birmingham,England,-1.9167,52.4167,[-2.4167 51.9167 -1.4167 52.9167],7.35,4.291,9.176,6.94,4.74,2.833,6.42,4.851,84.0,648.0
2015-02-03,Birmingham,England,-1.9167,52.4167,[-2.4167 51.9167 -1.4167 52.9167],7.35,4.291,9.176,6.94,4.76,2.844,6.389,4.836,84.0,655.0
2015-02-04,Birmingham,England,-1.9167,52.4167,[-2.4167 51.9167 -1.4167 52.9167],7.35,4.291,9.176,6.94,4.794,2.995,6.451,4.846,84.0,661.0
2015-02-05,Birmingham,England,-1.9167,52.4167,[-2.4167 51.9167 -1.4167 52.9167],7.694,5.502,9.346,7.411,4.813,3.176,6.486,4.928,78.0,656.0
2015-02-06,Birmingham,England,-1.9167,52.4167,[-2.4167 51.9167 -1.4167 52.9167],7.694,5.502,9.346,7.411,4.964,3.213,6.61,5.05,78.0,667.0
2015-02-07,Birmingham,England,-1.9167,52.4167,[-2.4167 51.9167 -1.4167 52.9167],7.694,5.502,9.346,7.411,4.925,3.134,6.583,5.048,78.0,655.0
2015-02-08,Birmingham,England,-1.9167,52.4167,[-2.4167 51.9167 -1.4167 52.9167],7.767,5.656,9.346,7.554,5.04,3.128,6.601,5.096,71.0,656.0
2015-02-09,Birmingham,England,-1.9167,52.4167,[-2.4167 51.9167 -1.4167 52.9167],7.767,5.656,9.346,7.554,5.003,3.105,6.839,5.121,71.0,649.0
2015-02-10,Birmingham,England,-1.9167,52.4167,[-2.4167 51.9167 -1.4167 52.9167],6.646,5.192,9.045,6.894,4.901,3.188,6.928,5.094,84.0,660.0
2015-02-11,Birmingham,England,-1.9167,52.4167,[-2.4167 51.9167 -1.4167 52.9167],6.667,5.494,9.045,6.97,5.0,3.251,7.136,5.225,82.0,611.0
2015-02-12,Birmingham,England,-1.9167,52.4167,[-2.4167 51.9167 -1.4167 52.9167],6.667,5.494,8.953,6.963,5.107,3.406,7.268,5.337,58.0,617.0
2015-02-13,Birmingham,England,-1.9167,52.4167,[-2.4167 51.9167 -1.4167 52.9167],6.667,5.494,8.953,6.963,5.093,3.343,7.211,5.336,58.0,623.0
2015-02-14,Birmingham,England,-1.9167,52.4167,[-2.4167 51.9167 -1.4167 52.9167],6.636,5.153,8.953,6.846,4.971,2.933,7.036,5.118,51.0,611.0
2015-02-15,Birmingham,England,-1.9167,52.4167,[-2.4167 51.9167 -1.4167 52.9167],6.636,5.153,8.953,6.846,5.015,3.328,7.028,5.237,51.0,612.0
2015-02-16,Birmingham,England,-1.9167,52.4167,[-2.4167 51.9167 -1.4167 52.9167],5.835,5.009,8.539,6.345,5.184,3.255,7.869,5.723,47.0,604.0
2015-02-17,Birmingham,England,-1.9167,52.4167,[-2.4167 51.9167 -1.4167 52.9167],4.589,3.17,5.572,4.132,5.835,3.093,8.252,6.056,31.0,616.0
2015-02-18,Birmingham,England,-1.9167,52.4167,[-2.4167 51.9167 -1.4167 52.9167],4.502,3.17,5.572,4.056,5.727,3.111,8.455,6.053,33.0,605.0
2015-02-19,Birmingham,England,-1.9167,52.4167,[-2.4167 51.9167 -1.4167 52.9167],4.502,3.17,5.572,4.056,5.714,3.151,8.905,6.178,33.0,614.0
2015-02-20,Birmingham,England,-1.9167,52.4167,[-2.4167 51.9167 -1.4167 52.9167],4.07,2.415,5.546,3.729,5.782,3.217,8.892,6.108,58.0,620.0
2015-02-21,Birmingham,England,-1.9167,52.4167,[-2.4167 51.9167 -1.4167 52.9167],4.07,2.415,5.546,3.729,5.746,3.107,8.919,6.056,58.0,612.0
2015-02-22,Birmingham,England,-1.9167,52.4167,[-2.4167 51.9167 -1.4167 52.9167],3.754,2.52,5.546,3.71,5.837,3.515,8.913,6.22,60.0,621.0
2015-02-23,Birmingham,England,-1.9167,52.4167,[-2.4167 51.9167 -1.4167 52.9167],3.754,2.52,5.546,3.71,5.746,3.304,8.599,6.048,60.0,612.0
2015-02-24,Birmingham,England,-1.9167,52.4167,[-2.4167 51.9167 -1.4167 52.9167],4.07,2.621,5.494,3.784,5.799,3.517,8.566,6.074,73.0,613.0
2015-02-25,Birmingham,England,-1.9167,52.4167,[-2.4167 51.9167 -1.4167 52.9167],3.418,2.535,5.015,3.642,5.672,3.568,8.396,6.031,84.0,607.0
2015-02-26,Birmingham,England,-1.9167,52.4167,[-2.4167 51.9167 -1.4167 52.9167],3.418,2.535,5.015,3.642,5.897,3.56,8.426,6.018,84.0,656.0
2015-02-27,Birmingham,England,-1.9167,52.4167,[-2.4167 51.9167 -1.4167 52.9167],3.754,2.696,5.118,3.93,5.91,3.626,8.314,6.009,114.0,645.0
2015-02-28,Birmingham,England,-1.9167,52.4167,[-2.4167 51.9167 -1.4167 52.9167],3.754,2.696,5.118,3.922,5.873,3.427,8.233,5.956,115.0,651.0
2015-03-01,Birmingham,England,-1.9167,52.4167,[-2.4167 51.9167 -1.4167 52.9167],3.754,2.696,5.118,3.922,5.528,3.723,8.365,6.095,115.0,658.0
2015-03-02,Birmingham,England,-1.9167,52.4167,[-2.4167 51.9167 -1.4167 52.9167],3.754,2.696,5.118,3.922,5.498,3.562,8.15,5.915,115.0,648.0
2015-03-03,Birmingham,England,-1.9167,52.4167,[-2.4167 51.9167 -1.4167 52.9167],3.931,2.696,5.341,4.322,4.976,3.083,7.171,5.305,122.0,655.0
2015-03-04,Birmingham,England,-1.9167,52.4167,[-2.4167 51.9167 -1.4167 52.9167],3.931,2.773,5.844,4.392,4.358,2.892,6.407,4.81,116.0,648.0
2015-03-05,Birmingham,England,-1.9167,52.4167,[-2.4167 51.9167 -1.4167 52.9167],3.931,2.773,5.844,4.42,4.19,2.795,6.407,4.72,114.0,656.0
2015-03-06,Birmingham,England,-1.9167,52.4167,[-2.4167 51.9167 -1.4167 52.9167],3.931,2.773,5.844,4.441,4.07,2.756,5.811,4.393,115.0,645.0
2015-03-07,Birmingham,England,-1.9167,52.4167,[-2.4167 51.9167 -1.4167 52.9167],4.141,2.966,6.398,4.744,3.94,2.864,5.534,4.141,90.0,651.0
2015-03-08,Birmingham,England,-1.9167,52.4167,[-2.4167 51.9167 -1.4167 52.9167],4.141,2.966,6.398,4.744,3.939,2.922,5.553,4.182,90.0,658.0
2015-03-09,Birmingham,England,-1.9167,52.4167,[-2.4167 51.9167 -1.4167 52.9167],4.165,2.966,6.398,4.775,3.949,2.917,5.629,4.206,88.0,651.0
2015-03-10,Birmingham,England,-1.9167,52.4167,[-2.4167 51.9167 -1.4167 52.9167],4.165,2.966,6.398,4.775,3.894,2.947,5.726,4.278,88.0,659.0
2015-03-11,Birmingham,England,-1.9167,52.4167,[-2.4167 51.9167 -1.4167 52.9167],4.062,3.362,6.439,4.862,4.15,3.137,5.924,4.546,75.0,652.0
2015-03-12,Birmingham,England,-1.9167,52.4167,[-2.4167 51.9167 -1.4167 52.9167],4.062,3.362,6.602,5.135,4.285,3.151,5.882,4.617,55.0,656.0
2015-03-13,Birmingham,England,-1.9167,52.4167,[-2.4167 51.9167 -1.4167 52.9167],5.891,3.698,9.711,6.904,4.75,3.275,6.734,5.124,82.0,649.0
2015-03-14,Birmingham,England,-1.9167,52.4167,[-2.4167 51.9167 -1.4167 52.9167],9.084,4.063,10.453,8.538,5.071,3.19,6.339,5.06,52.0,660.0
2015-03-15,Birmingham,England,-1.9167,52.4167,[-2.4167 51.9167 -1.4167 52.9167],9.084,4.251,10.453,8.596,5.133,3.311,6.341,5.118,51.0,611.0
2015-03-16,Birmingham,England,-1.9167,52.4167,[-2.4167 51.9167 -1.4167 52.9167],9.084,4.251,10.453,8.596,5.062,3.262,6.371,5.09,51.0,617.0
2015-03-17,Birmingham,England,-1.9167,52.4167,[-2.4167 51.9167 -1.4167 52.9167],9.084,4.263,10.607,9.028,5.291,3.362,6.525,5.395,61.0,623.0
2015-03-18,Birmingham,England,-1.9167,52.4167,[-2.4167 51.9167 -1.4167 52.9167],9.896,8.353,12.539,10.338,4.915,3.792,6.147,5.108,42.0,609.0
2015-03-19,Birmingham,England,-1.9167,52.4167,[-2.4167 51.9167 -1.4167 52.9167],9.896,8.353,12.539,10.338,4.498,3.498,5.909,4.847,42.0,634.0
2015-03-20,Birmingham,England,-1.9167,52.4167,[-2.4167 51.9167 -1.4167 52.9167],9.896,7.737,12.539,10.252,4.508,3.441,5.921,4.847,43.0,653.0
2015-03-21,Birmingham,England,-1.9167,52.4167,[-2.4167 51.9167 -1.4167 52.9167],9.896,7.737,12.539,10.206,4.575,3.415,6.114,4.957,42.0,677.0
2015-03-22,Birmingham,England,-1.9167,52.4167,[-2.4167 51.9167 -1.4167 52.9167],9.896,7.737,12.539,10.206,4.735,3.485,6.164,5.07,42.0,668.0
2015-03-23,Birmingham,England,-1.9167,52.4167,[-2.4167 51.9167 -1.4167 52.9167],9.896,7.737,12.539,10.206,4.814,3.48,6.331,5.214,42.0,672.0
2015-03-24,Birmingham,England,-1.9167,52.4167,[-2.4167 51.9167 -1.4167 52.9167],9.711,5.659,11.966,9.359,4.789,3.225,6.194,5.097,48.0,680.0
2015-03-25,Birmingham,England,-1.9167,52.4167,[-2.4167 51.9167 -1.4167 52.9167],9.711,5.659,11.966,9.359,5.23,3.567,6.894,5.625,48.0,675.0
2015-03-26,Birmingham,England,-1.9167,52.4167,[-2.4167 51.9167 -1.4167 52.9167],9.711,7.564,12.364,9.582,5.18,3.448,7.032,5.512,54.0,680.0
2015-03-27,Birmingham,England,-1.9167,52.4167,[-2.4167 51.9167 -1.4167 52.9167],9.896,7.737,12.539,10.051,4.979,3.33,7.541,5.669,50.0,670.0
2015-03-28,Birmingham,England,-1.9167,52.4167,[-2.4167 51.9167 -1.4167 52.9167],7.88,5.021,14.028,9.082,4.532,2.861,7.235,5.296,23.0,672.0
2015-03-29,Birmingham,England,-1.9167,52.4167,[-2.4167 51.9167 -1.4167 52.9167],7.88,5.021,14.028,9.024,4.517,2.833,7.399,5.25,25.0,666.0
2015-03-30,Birmingham,England,-1.9167,52.4167,[-2.4167 51.9167 -1.4167 52.9167],6.119,4.556,7.88,6.995,4.529,2.898,7.204,5.244,39.0,716.0
2015-03-31,Birmingham,England,-1.9167,52.4167,[-2.4167 51.9167 -1.4167 52.9167],6.142,4.722,8.987,8.297,4.56,3.033,7.165,5.483,67.0,705.0
2015-04-01,Birmingham,England,-1.9167,52.4167,[-2.4167 51.9167 -1.4167 52.9167],6.119,4.722,8.577,7.468,4.903,3.069,7.516,5.562,66.0,711.0
2015-04-02,Birmingham,England,-1.9167,52.4167,[-2.4167 51.9167 -1.4167 52.9167],5.729,4.333,7.88,7.025,5.078,3.284,7.603,5.797,98.0,718.0
2015-04-03,Birmingham,England,-1.9167,52.4167,[-2.4167 51.9167 -1.4167 52.9167],5.729,4.333,7.88,7.025,5.244,3.516,7.922,5.967,98.0,685.0
2015-04-04,Birmingham,England,-1.9167,52.4167,[-2.4167 51.9167 -1.4167 52.9167],5.131,3.515,7.288,6.382,5.219,3.461,7.768,5.879,116.0,664.0
2015-04-05,Birmingham,England,-1.9167,52.4167,[-2.4167 51.9167 -1.4167 52.9167],5.131,3.515,7.288,6.382,5.186,3.402,7.771,5.833,117.0,642.0
2015-04-06,Birmingham,England,-1.9167,52.4167,[-2.4167 51.9167 -1.4167 52.9167],5.131,3.515,7.288,6.382,5.186,3.402,7.771,5.833,117.0,654.0
2015-04-07,Birmingham,England,-1.9167,52.4167,[-2.4167 51.9167 -1.4167 52.9167],4.654,3.061,6.673,5.675,4.956,3.241,7.684,5.742,151.0,666.0
2015-04-08,Birmingham,England,-1.9167,52.4167,[-2.4167 51.9167 -1.4167 52.9167],4.692,3.118,6.602,5.686,5.172,3.39,7.872,6.084,155.0,700.0
2015-04-09,Birmingham,England,-1.9167,52.4167,[-2.4167 51.9167 -1.4167 52.9167],4.692,3.118,6.602,5.636,4.993,3.153,7.266,5.778,166.0,740.0
2015-04-10,Birmingham,England,-1.9167,52.4167,[-2.4167 51.9167 -1.4167 52.9167],4.578,3.061,6.546,5.406,5.349,3.393,7.846,6.032,160.0,736.0
2015-04-11,Birmingham,England,-1.9167,52.4167,[-2.4167 51.9167 -1.4167 52.9167],4.446,3.118,6.142,5.267,5.208,3.386,7.848,5.978,177.0,741.0
2015-04-12,Birmingham,England,-1.9167,52.4167,[-2.4167 51.9167 -1.4167 52.9167],4.446,3.118,6.142,5.267,5.274,3.514,7.88,6.059,177.0,734.0
2015-04-13,Birmingham,England,-1.9167,52.4167,[-2.4167 51.9167 -1.4167 52.9167],4.656,3.156,6.673,5.507,5.294,3.441,7.936,6.078,194.0,734.0
2015-04-14,Birmingham,England,-1.9167,52.4167,[-2.4167 51.9167 -1.4167 52.9167],5.034,3.468,7.753,6.08,5.489,3.671,8.304,6.337,216.0,727.0
2015-04-15,Birmingham,England,-1.9167,52.4167,[-2.4167 51.9167 -1.4167 52.9167],4.692,3.156,7.288,5.434,5.394,3.613,8.183,6.155,196.0,739.0
2015-04-16,Birmingham,England,-1.9167,52.4167,[-2.4167 51.9167 -1.4167 52.9167],4.49,3.154,7.357,5.407,5.285,3.644,8.213,6.146,187.0,690.0
2015-04-17,Birmingham,England,-1.9167,52.4167,[-2.4167 51.9167 -1.4167 52.9167],4.62,3.035,7.483,5.424,5.529,3.835,8.493,6.325,158.0,722.0
2015-04-18,Birmingham,England,-1.9167,52.4167,[-2.4167 51.9167 -1.4167 52.9167],4.62,3.035,7.483,5.431,5.632,4.101,8.428,6.471,159.0,728.0
2015-04-19,Birmingham,England,-1.9167,52.4167,[-2.4167 51.9167 -1.4167 52.9167],4.963,3.417,8.155,5.802,5.756,4.179,8.689,6.586,140.0,748.0
2015-04-20,Birmingham,England,-1.9167,52.4167,[-2.4167 51.9167 -1.4167 52.9167],5.033,3.468,8.3,6.109,5.77,4.133,8.742,6.679,149.0,793.0
2015-04-21,Birmingham,England,-1.9167,52.4167,[-2.4167 51.9167 -1.4167 52.9167],4.88,2.903,8.155,5.696,5.676,3.871,8.664,6.484,177.0,809.0
2015-04-22,Birmingham,England,-1.9167,52.4167,[-2.4167 51.9167 -1.4167 52.9167],5.2,3.459,8.248,6.054,5.83,4.141,8.705,6.495,161.0,811.0
2015-04-23,Birmingham,England,-1.9167,52.4167,[-2.4167 51.9167 -1.4167 52.9167],5.524,3.459,8.492,6.218,5.71,3.893,8.311,6.127,152.0,772.0
2015-04-24,Birmingham,England,-1.9167,52.4167,[-2.4167 51.9167 -1.4167 52.9167],5.841,3.459,8.492,6.331,5.817,3.851,8.283,6.139,141.0,745.0
2015-04-25,Birmingham,England,-1.9167,52.4167,[-2.4167 51.9167 -1.4167 52.9167],5.841,3.459,8.492,6.331,5.58,3.559,7.633,5.795,141.0,751.0
2015-04-26,Birmingham,England,-1.9167,52.4167,[-2.4167 51.9167 -1.4167 52.9167],6.463,3.946,8.639,6.71,5.732,3.625,7.546,5.781,124.0,748.0
2015-04-27,Birmingham,England,-1.9167,52.4167,[-2.4167 51.9167 -1.4167 52.9167],5.948,3.459,8.503,6.421,5.3,2.984,7.31,5.371,134.0,755.0
2015-04-28,Birmingham,England,-1.9167,52.4167,[-2.4167 51.9167 -1.4167 52.9167],5.45,3.332,8.322,6.131,4.604,2.913,6.53,4.823,115.0,746.0
2015-04-29,Birmingham,England,-1.9167,52.4167,[-2.4167 51.9167 -1.4167 52.9167],3.825,2.546,6.706,4.775,3.387,2.174,5.326,3.764,79.0,752.0
2015-04-30,Birmingham,England,-1.9167,52.4167,[-2.4167 51.9167 -1.4167 52.9167],3.725,2.254,5.948,4.606,3.469,2.165,5.374,3.902,80.0,744.0
2015-05-01,Birmingham,England,-1.9167,52.4167,[-2.4167 51.9167 -1.4167 52.9167],3.725,2.254,5.948,4.606,3.378,2.085,5.213,3.8,80.0,791.0
2015-05-02,Birmingham,England,-1.9167,52.4167,[-2.4167 51.9167 -1.4167 52.9167],3.716,1.968,5.787,4.382,3.326,2.028,5.141,3.699,77.0,752.0
2015-05-03,Birmingham,England,-1.9167,52.4167,[-2.4167 51.9167 -1.4167 52.9167],3.711,1.968,5.787,4.358,3.402,2.162,5.044,3.719,76.0,758.0
2015-05-04,Birmingham,England,-1.9167,52.4167,[-2.4167 51.9167 -1.4167 52.9167],2.865,1.476,4.327,3.563,3.308,2.116,4.771,3.651,111.0,735.0
2015-05-05,Birmingham,England,-1.9167,52.4167,[-2.4167 51.9167 -1.4167 52.9167],2.694,1.411,3.825,2.761,3.125,1.985,4.412,3.361,101.0,685.0
2015-05-06,Birmingham,England,-1.9167,52.4167,[-2.4167 51.9167 -1.4167 52.9167],2.965,1.64,3.999,3.004,3.63,2.245,5.055,3.764,78.0,665.0
2015-05-07,Birmingham,England,-1.9167,52.4167,[-2.4167 51.9167 -1.4167 52.9167],2.85,1.64,3.685,2.622,3.573,2.236,5.121,3.718,60.0,650.0
2015-05-08,Birmingham,England,-1.9167,52.4167,[-2.4167 51.9167 -1.4167 52.9167],3.113,1.992,4.517,4.195,3.737,2.313,5.113,3.94,69.0,672.0
2015-05-09,Birmingham,England,-1.9167,52.4167,[-2.4167 51.9167 -1.4167 52.9167],2.965,1.79,3.825,3.663,3.681,2.263,4.888,3.856,101.0,682.0
2015-05-10,Birmingham,England,-1.9167,52.4167,[-2.4167 51.9167 -1.4167 52.9167],2.965,1.79,3.825,3.663,3.584,2.153,4.879,3.775,101.0,721.0
2015-05-11,Birmingham,England,-1.9167,52.4167,[-2.4167 51.9167 -1.4167 52.9167],2.965,1.79,3.825,3.599,3.645,2.213,5.148,3.921,108.0,757.0
2015-05-12,Birmingham,England,-1.9167,52.4167,[-2.4167 51.9167 -1.4167 52.9167],2.889,1.696,3.716,3.56,3.797,2.225,5.387,4.02,98.0,771.0
2015-05-13,Birmingham,England,-1.9167,52.4167,[-2.4167 51.9167 -1.4167 52.9167],2.889,1.696,3.716,3.56,3.852,2.121,5.62,4.126,98.0,784.0
2015-05-14,Birmingham,England,-1.9167,52.4167,[-2.4167 51.9167 -1.4167 52.9167],2.889,1.696,3.716,3.56,3.944,2.315,5.805,4.28,98.0,790.0
2015-05-15,Birmingham,England,-1.9167,52.4167,[-2.4167 51.9167 -1.4167 52.9167],2.889,1.64,3.73,3.592,3.776,2.247,5.412,4.101,89.0,800.0
2015-05-16,Birmingham,England,-1.9167,52.4167,[-2.4167 51.9167 -1.4167 52.9167],2.889,1.64,3.73,3.524,3.691,2.264,5.27,4.024,93.0,822.0
2015-05-17,Birmingham,England,-1.9167,52.4167,[-2.4167 51.9167 -1.4167 52.9167],2.889,1.64,3.73,3.524,3.668,2.244,5.259,4.014,93.0,858.0
2015-05-18,Birmingham,England,-1.9167,52.4167,[-2.4167 51.9167 -1.4167 52.9167],2.889,1.64,3.73,3.524,3.371,2.182,5.247,3.912,93.0,809.0
2015-05-19,Birmingham,England,-1.9167,52.4167,[-2.4167 51.9167 -1.4167 52.9167],3.439,1.79,6.467,4.498,3.428,2.139,5.342,3.917,58.0,833.0
2015-05-20,Birmingham,England,-1.9167,52.4167,[-2.4167 51.9167 -1.4167 52.9167],3.685,2.084,6.536,4.768,3.514,2.391,5.482,4.082,70.0,838.0
2015-05-21,Birmingham,England,-1.9167,52.4167,[-2.4167 51.9167 -1.4167 52.9167],3.712,2.084,6.599,4.847,3.333,2.062,4.972,3.782,65.0,857.0
2015-05-22,Birmingham,England,-1.9167,52.4167,[-2.4167 51.9167 -1.4167 52.9167],3.712,2.084,6.599,4.847,3.304,2.049,4.976,3.831,65.0,899.0
2015-05-23,Birmingham,England,-1.9167,52.4167,[-2.4167 51.9167 -1.4167 52.9167],2.851,1.338,3.825,2.879,3.094,1.801,4.829,3.53,80.0,907.0
2015-05-24,Birmingham,England,-1.9167,52.4167,[-2.4167 51.9167 -1.4167 52.9167],3.512,1.262,4.858,3.34,3.173,1.832,5.003,3.624,48.0,933.0
2015-05-25,Birmingham,England,-1.9167,52.4167,[-2.4167 51.9167 -1.4167 52.9167],3.512,1.262,4.858,3.34,3.282,1.87,5.066,3.682,48.0,922.0
2015-05-26,Birmingham,England,-1.9167,52.4167,[-2.4167 51.9167 -1.4167 52.9167],3.673,1.23,5.273,3.534,3.088,1.69,4.531,3.352,41.0,933.0
2015-05-27,Birmingham,England,-1.9167,52.4167,[-2.4167 51.9167 -1.4167 52.9167],2.182,1.16,4.263,2.772,2.889,1.604,4.145,3.077,61.0,950.0
2015-05-28,Birmingham,England,-1.9167,52.4167,[-2.4167 51.9167 -1.4167 52.9167],2.182,1.16,4.263,2.772,2.779,1.602,4.135,3.048,61.0,970.0
2015-05-29,Birmingham,England,-1.9167,52.4167,[-2.4167 51.9167 -1.4167 52.9167],2.182,1.027,3.512,2.549,2.544,1.509,3.931,2.825,75.0,996.0
2015-05-30,Birmingham,England,-1.9167,52.4167,[-2.4167 51.9167 -1.4167 52.9167],2.182,1.027,3.512,2.549,2.793,1.559,4.209,3.019,75.0,1005.0
2015-05-31,Birmingham,England,-1.9167,52.4167,[-2.4167 51.9167 -1.4167 52.9167],1.811,0.983,2.954,2.308,2.75,1.387,4.064,2.978,90.0,1028.0
2015-06-01,Birmingham,England,-1.9167,52.4167,[-2.4167 51.9167 -1.4167 52.9167],2.297,1.16,4.372,2.972,2.849,1.461,4.432,3.167,111.0,1025.0
2015-06-02,Birmingham,England,-1.9167,52.4167,[-2.4167 51.9167 -1.4167 52.9167],2.297,1.16,4.372,2.972,3.023,1.593,4.345,3.249,111.0,1127.0
2015-06-03,Birmingham,England,-1.9167,52.4167,[-2.4167 51.9167 -1.4167 52.9167],2.696,1.282,4.195,3.039,2.943,1.426,4.256,3.107,133.0,1127.0
2015-06-04,Birmingham,England,-1.9167,52.4167,[-2.4167 51.9167 -1.4167 52.9167],2.423,1.287,3.514,2.764,2.972,1.614,4.373,3.174,132.0,1174.0
2015-06-05,Birmingham,England,-1.9167,52.4167,[-2.4167 51.9167 -1.4167 52.9167],2.423,1.287,3.514,2.762,3.034,1.685,4.337,3.165,133.0,1185.0
2015-06-06,Birmingham,England,-1.9167,52.4167,[-2.4167 51.9167 -1.4167 52.9167],2.423,1.287,3.514,2.762,3.034,1.685,4.337,3.165,133.0,1178.0
2015-06-07,Birmingham,England,-1.9167,52.4167,[-2.4167 51.9167 -1.4167 52.9167],2.664,1.371,3.514,2.893,3.199,1.706,4.373,3.204,108.0,1196.0
2015-06-08,Birmingham,England,-1.9167,52.4167,[-2.4167 51.9167 -1.4167 52.9167],2.664,1.371,3.605,2.924,3.052,1.637,4.285,3.113,134.0,1177.0
2015-06-09,Birmingham,England,-1.9167,52.4167,[-2.4167 51.9167 -1.4167 52.9167],2.698,1.41,3.868,3.002,3.056,1.671,4.373,3.156,147.0,1170.0
2015-06-10,Birmingham,England,-1.9167,52.4167,[-2.4167 51.9167 -1.4167 52.9167],2.698,1.41,3.868,3.002,2.954,1.533,4.353,3.012,147.0,1147.0
2015-06-11,Birmingham,England,-1.9167,52.4167,[-2.4167 51.9167 -1.4167 52.9167],2.753,1.815,3.868,3.156,2.965,1.649,4.416,3.127,138.0,1158.0
2015-06-12,Birmingham,England,-1.9167,52.4167,[-2.4167 51.9167 -1.4167 52.9167],2.708,2.036,3.842,3.083,2.981,1.732,4.364,3.104,154.0,1168.0
2015-06-13,Birmingham,England,-1.9167,52.4167,[-2.4167 51.9167 -1.4167 52.9167],2.819,2.275,3.868,3.211,3.003,1.797,4.313,3.116,140.0,1173.0
2015-06-14,Birmingham,England,-1.9167,52.4167,[-2.4167 51.9167 -1.4167 52.9167],2.819,2.275,3.868,3.211,2.748,1.621,4.135,2.949,140.0,1189.0
2015-06-15,Birmingham,England,-1.9167,52.4167,[-2.4167 51.9167 -1.4167 52.9167],2.999,2.379,4.211,3.498,2.775,1.654,4.061,2.992,121.0,1169.0
2015-06-16,Birmingham,England,-1.9167,52.4167,[-2.4167 51.9167 -1.4167 52.9167],2.973,2.346,3.842,3.093,2.717,1.585,3.89,2.784,100.0,1192.0
2015-06-17,Birmingham,England,-1.9167,52.4167,[-2.4167 51.9167 -1.4167 52.9167],2.973,2.314,3.842,3.036,2.489,1.545,3.608,2.645,117.0,1166.0
2015-06-18,Birmingham,England,-1.9167,52.4167,[-2.4167 51.9167 -1.4167 52.9167],2.708,2.314,3.514,2.973,2.738,1.641,3.836,2.808,95.0,1204.0